User: anonymous   Login
Location: Stigler
(35.2540°N, 95.1230°W)
Time: 09:15:42
(UTC-06:00)
Language:

Cosmos 1805 - Orbit

View from above orbital plane
View from above orbital plane
View from above satellite
View from above satellite

Ground track
Ground track

The orbit data is extracted from the following two-line orbital elements,

1 17191U 86097A   17022.87448992 +.00000812 +00000-0 +46117-4 0  9996
2 17191 082.4763 172.5660 0004482 200.4460 159.6592 15.11578167641406
Epoch (UTC): 22 January 2017 20:59:15
Eccentricity: 0.0004482
inclination: 82.4763°
perigee height: 528 km
apogee height: 534 km
right ascension of ascending node: 172.5660°
argument of perigee: 200.4460°
revolutions per day: 15.11578167
mean anomaly at epoch: 159.6592°
orbit number at epoch: 64140

The dashed part of the orbit path shows where the satellite is in the earth's shadow,  

DLR